• In India
  • List of Countries
  • For 7 days
  • Water Temperature
  • Satellite Maps
  • Weather Map
  • Weather Widgets
  • user-avatar
    Login

    Hourly Weather Wiktoria

    Today, 16 December, Sunday

    Time Temperature Precipitation Wind Pressure Humidity
    00:00 +18°C° 0 mm 2 mps 742 mmHg 60%
    01:00 +17°C° 0 mm 2 mps 742 mmHg 62%
    02:00 +17°C° 0 mm 2 mps 742 mmHg 64%
    03:00 +17°C° 0 mm 2 mps 742 mmHg 66%
    04:00 +17°C° 0 mm 2 mps 742 mmHg 73%
    05:00 +17°C° 0.1 mm 2 mps 742 mmHg 72%
    06:00 +18°C° 0.1 mm 2 mps 742 mmHg 70%
    07:00 +18°C° 0.1 mm 2 mps 743 mmHg 69%
    08:00 +19°C° 0.3 mm 2 mps 743 mmHg 67%
    09:00 +19°C° 0.3 mm 2 mps 743 mmHg 66%
    10:00 +19°C° 0 mm 2 mps 743 mmHg 69%
    11:00 +21°C° 0.1 mm 3 mps 743 mmHg 61%
    12:00 +23°C° 0.1 mm 4 mps 743 mmHg 53%
    13:00 +26°C° 0.1 mm 4 mps 743 mmHg 44%
    14:00 +26°C° 0.3 mm 4 mps 743 mmHg 44%
    15:00 +26°C° 0.3 mm 4 mps 742 mmHg 44%
    16:00 +26°C° 0.3 mm 4 mps 742 mmHg 43%
    17:00 +25°C° 0.1 mm 3 mps 742 mmHg 47%
    18:00 +25°C° 0.1 mm 2 mps 743 mmHg 50%
    19:00 +24°C° 0.1 mm 1 mps 743 mmHg 54%
    20:00 +23°C° 0 mm 1 mps 743 mmHg 57%
    21:00 +22°C° 0 mm 1 mps 744 mmHg 60%
    22:00 +21°C° 0 mm 1 mps 744 mmHg 64%
    23:00 +20°C° 0 mm 1 mps 744 mmHg 66%

    Tomorrow, 17 December, Monday

    Time Temperature Precipitation Wind Pressure Humidity
    00:00 +20°C° 0 mm 1 mps 744 mmHg 69%
    01:00 +19°C° 0 mm 1 mps 744 mmHg 71%
    02:00 +19°C° 0 mm 1 mps 744 mmHg 73%
    03:00 +18°C° 0 mm 1 mps 744 mmHg 75%
    04:00 +18°C° 0 mm 1 mps 744 mmHg 78%
    05:00 +19°C° 0 mm 1 mps 745 mmHg 74%
    06:00 +20°C° 0 mm 1 mps 745 mmHg 70%
    07:00 +21°C° 0 mm 1 mps 746 mmHg 66%
    08:00 +23°C° 0 mm 1 mps 746 mmHg 59%
    09:00 +25°C° 0 mm 1 mps 746 mmHg 53%
    10:00 +27°C° 0 mm 1 mps 746 mmHg 46%
    11:00 +28°C° 0 mm 2 mps 746 mmHg 43%
    12:00 +29°C° 0 mm 2 mps 746 mmHg 40%
    13:00 +30°C° 0 mm 3 mps 746 mmHg 36%
    14:00 +31°C° 0 mm 3 mps 746 mmHg 36%
    15:00 +31°C° 0 mm 3 mps 745 mmHg 35%
    16:00 +31°C° 0 mm 3 mps 745 mmHg 34%
    17:00 +29°C° 0 mm 4 mps 746 mmHg 41%
    18:00 +28°C° 0 mm 4 mps 746 mmHg 47%
    19:00 +26°C° 0 mm 5 mps 746 mmHg 53%
    20:00 +23°C° 0 mm 5 mps 747 mmHg 58%
    21:00 +22°C° 0 mm 5 mps 748 mmHg 63%
    22:00 +20°C° 0 mm 5 mps 748 mmHg 68%
    23:00 +19°C° 0 mm 5 mps 748 mmHg 71%

    Day after tomorrow, 18 December, Tuesday

    Time Temperature Precipitation Wind Pressure Humidity
    00:00 +18°C° 0 mm 4 mps 748 mmHg 74%
    01:00 +17°C° 0 mm 4 mps 748 mmHg 77%
    02:00 +17°C° 0 mm 4 mps 748 mmHg 78%
    03:00 +15°C° 0 mm 4 mps 748 mmHg 79%
    04:00 +16°C° 0 mm 3 mps 748 mmHg 80%
    05:00 +17°C° 0 mm 3 mps 748 mmHg 76%
    06:00 +18°C° 0 mm 3 mps 748 mmHg 72%
    07:00 +19°C° 0 mm 3 mps 749 mmHg 68%
    08:00 +21°C° 0 mm 3 mps 749 mmHg 60%
    09:00 +25°C° 0 mm 3 mps 749 mmHg 51%
    10:00 +27°C° 0 mm 3 mps 749 mmHg 43%
    11:00 +29°C° 0 mm 3 mps 748 mmHg 38%
    12:00 +31°C° 0 mm 3 mps 748 mmHg 32%
    13:00 +33°C° 0 mm 4 mps 748 mmHg 27%
    14:00 +33°C° 0 mm 4 mps 747 mmHg 26%
    15:00 +33°C° 0 mm 5 mps 747 mmHg 26%
    16:00 +34°C° 0 mm 5 mps 747 mmHg 25%
    17:00 +32°C° 0 mm 5 mps 747 mmHg 31%
    18:00 +29°C° 0 mm 5 mps 747 mmHg 36%
    19:00 +27°C° 0 mm 5 mps 747 mmHg 42%
    20:00 +26°C° 0 mm 4 mps 747 mmHg 46%
    21:00 +23°C° 0 mm 4 mps 748 mmHg 51%
    22:00 +22°C° 0 mm 4 mps 748 mmHg 55%
    23:00 +21°C° 0 mm 3 mps 747 mmHg 59%

    19 December, Wednesday

    Time Temperature Precipitation Wind Pressure Humidity
    00:00 +20°C° 0 mm 3 mps 747 mmHg 63%
    01:00 +20°C° 0 mm 2 mps 747 mmHg 66%
    02:00 +19°C° 0 mm 2 mps 746 mmHg 68%
    03:00 +19°C° 0 mm 2 mps 746 mmHg 69%
    04:00 +19°C° 0 mm 2 mps 746 mmHg 70%
    05:00 +20°C° 0 mm 3 mps 746 mmHg 67%
    06:00 +21°C° 0 mm 3 mps 746 mmHg 64%
    07:00 +22°C° 0 mm 3 mps 746 mmHg 61%
    08:00 +26°C° 0 mm 3 mps 746 mmHg 55%
    09:00 +28°C° 0 mm 3 mps 746 mmHg 49%
    10:00 +31°C° 0 mm 3 mps 746 mmHg 43%
    11:00 +33°C° 0 mm 3 mps 745 mmHg 38%
    12:00 +35°C° 0 mm 3 mps 744 mmHg 34%
    13:00 +37°C° 0 mm 3 mps 744 mmHg 29%
    14:00 +37°C° 0 mm 3 mps 743 mmHg 27%
    15:00 +38°C° 0 mm 3 mps 742 mmHg 25%
    16:00 +39°C° 0 mm 3 mps 741 mmHg 24%
    17:00 +38°C° 0 mm 3 mps 740 mmHg 27%
    18:00 +37°C° 0 mm 3 mps 740 mmHg 30%
    19:00 +36°C° 0 mm 3 mps 739 mmHg 33%
    20:00 +35°C° 0 mm 3 mps 739 mmHg 33%
    21:00 +34°C° 0 mm 4 mps 739 mmHg 34%
    22:00 +33°C° 0 mm 4 mps 739 mmHg 35%
    23:00 +30°C° 0 mm 4 mps 739 mmHg 37%

    20 December, Thursday

    Time Temperature Precipitation Wind Pressure Humidity
    00:00 +29°C° 0 mm 3 mps 739 mmHg 39%
    01:00 +28°C° 0 mm 3 mps 739 mmHg 41%
    02:00 +26°C° 0 mm 3 mps 738 mmHg 45%
    03:00 +25°C° 0 mm 3 mps 738 mmHg 50%
    04:00 +22°C° 0 mm 3 mps 738 mmHg 54%
    05:00 +22°C° 0 mm 3 mps 739 mmHg 55%
    06:00 +23°C° 0 mm 4 mps 739 mmHg 56%
    07:00 +23°C° 0 mm 5 mps 740 mmHg 57%
    08:00 +25°C° 0 mm 5 mps 740 mmHg 55%
    09:00 +27°C° 0 mm 6 mps 741 mmHg 52%
    10:00 +28°C° 0 mm 6 mps 742 mmHg 50%
    11:00 +28°C° 0 mm 6 mps 742 mmHg 51%
    12:00 +28°C° 0 mm 6 mps 742 mmHg 52%
    13:00 +27°C° 0 mm 6 mps 742 mmHg 53%
    14:00 +27°C° 0 mm 6 mps 742 mmHg 51%
    15:00 +28°C° 0 mm 6 mps 742 mmHg 50%
    16:00 +28°C° 0 mm 6 mps 742 mmHg 48%
    17:00 +26°C° 0 mm 6 mps 742 mmHg 50%
    18:00 +24°C° 0 mm 6 mps 743 mmHg 51%
    19:00 +22°C° 0 mm 6 mps 744 mmHg 52%
    20:00 +21°C° 0 mm 6 mps 744 mmHg 58%
    21:00 +19°C° 0 mm 5 mps 745 mmHg 63%
    22:00 +18°C° 0 mm 4 mps 745 mmHg 68%
    23:00 +17°C° 0 mm 4 mps 745 mmHg 69%

    21 December, Friday

    Time Temperature Precipitation Wind Pressure Humidity
    00:00 +16°C° 0 mm 5 mps 745 mmHg 69%
    01:00 +15°C° 0 mm 5 mps 745 mmHg 70%
    02:00 +15°C° 0 mm 5 mps 745 mmHg 70%
    03:00 +14°C° 0 mm 5 mps 745 mmHg 71%
    04:00 +14°C° 0 mm 5 mps 745 mmHg 72%
    05:00 +14°C° 0 mm 5 mps 746 mmHg 69%
    06:00 +15°C° 0 mm 6 mps 746 mmHg 65%
    07:00 +15°C° 0 mm 7 mps 746 mmHg 62%
    08:00 +16°C° 0 mm 7 mps 746 mmHg 57%
    09:00 +18°C° 0 mm 7 mps 746 mmHg 51%
    10:00 +20°C° 0 mm 7 mps 746 mmHg 46%
    11:00 +21°C° 0 mm 7 mps 746 mmHg 43%
    12:00 +22°C° 0 mm 7 mps 746 mmHg 40%
    13:00 +23°C° 0 mm 7 mps 745 mmHg 37%
    14:00 +23°C° 0 mm 7 mps 745 mmHg 37%
    15:00 +23°C° 0 mm 7 mps 745 mmHg 36%
    16:00 +23°C° 0 mm 7 mps 744 mmHg 36%
    17:00 +22°C° 0 mm 7 mps 745 mmHg 40%
    18:00 +20°C° 0 mm 7 mps 745 mmHg 44%
    19:00 +18°C° 0 mm 7 mps 746 mmHg 47%
    20:00 +16°C° 0 mm 7 mps 746 mmHg 52%
    21:00 +15°C° 0 mm 6 mps 747 mmHg 56%
    22:00 +14°C° 0 mm 5 mps 748 mmHg 61%
    23:00 +13°C° 0 mm 5 mps 748 mmHg 64%
    Show more